FW6665 Weather Reports


time (UTC)temp
F
wind
direction
speed
knots
gust
knots
rain 1hr
in
rain 24hr
in
rain mn
in
humidity
%
barometer
mb
20260902002705 63 243 0.9 2.6 0.00 0.00 0.00 74 1017.5
20260902002204 63 243 0.9 2.6 0.00 0.00 0.00 74 1017.4
20260902001705 63 243 0.9 2.6 0.00 0.00 0.00 74 1017.5
20260902001206 64 240 0.9 2.6 0.00 0.00 0.00 74 1017.4
20260902000704 64 241 0.9 2.6 0.00 0.00 0.00 74 1017.6
20260902000204 64 241 0.9 2.6 0.00 0.00 0.00 74 1017.6
20260901235705 64 241 0.9 5.2 0.00 0.00 0.00 74 1017.6
20260901235204 64 243 0.9 6.1 0.00 0.00 0.00 73 1017.6
20260901234704 64 240 0.9 6.1 0.00 0.00 0.00 73 1017.6
20260901234204 64 254 1.7 6.1 0.00 0.00 0.00 73 1017.6
20260901233704 64 196 1.7 3.5 0.00 0.00 0.00 73 1017.7
20260901233203 64 195 0.0 3.5 0.00 0.00 0.00 73 1017.6
20260901232708 64 195 1.7 3.5 0.00 0.00 0.00 73 1017.6
20260901232205 64 193 0.9 3.5 0.00 0.00 0.00 73 1017.6
20260901231705 64 193 0.9 3.5 0.00 0.00 0.00 73 1017.6
20260901231204 64 192 1.7 2.6 0.00 0.00 0.00 73 1017.6
20260901230709 64 189 0.9 2.6 0.00 0.00 0.00 73 1017.6
20260901230203 64 189 0.0 2.6 0.00 0.00 0.00 73 1017.6
20260901225709 64 189 0.9 1.7 0.00 0.00 0.00 72 1017.7
20260901224705 64 189 0.9 1.7 0.00 0.00 0.00 72 1017.7
20260901224204 64 189 0.9 1.7 0.00 0.00 0.00 72 1017.7
20260901223704 64 189 0.9 1.7 0.00 0.00 0.00 72 1017.6
20260901223205 64 189 0.0 1.7 0.00 0.00 0.00 72 1017.7
20260901222705 64 189 0.9 2.6 0.00 0.00 0.00 72 1017.7
20260901221730 64 189 0.9 2.6 0.00 0.00 0.00 72 1017.7
20260901220704 64 188 0.0 2.6 0.00 0.00 0.00 72 1017.8
20260901215709 64 189 0.9 2.6 0.00 0.00 0.00 72 1017.9
20260901215204 64 188 0.0 2.6 0.00 0.00 0.00 72 1017.9
20260901214704 64 188 0.9 2.6 0.00 0.00 0.00 71 1018.0
20260901214211 64 186 0.0 2.6 0.00 0.00 0.00 71 1017.9
20260901213704 64 186 0.0 1.7 0.00 0.00 0.00 71 1017.8
20260901213204 64 186 0.0 2.6 0.00 0.00 0.00 71 1017.7
20260901212704 64 186 0.0 2.6 0.00 0.00 0.00 71 1017.7
20260901212209 64 186 0.9 1.7 0.00 0.00 0.00 71 1017.9
20260901211704 64 186 0.0 1.7 0.00 0.00 0.00 70 1017.8
20260901211204 65 186 0.0 4.3 0.00 0.00 0.00 70 1017.7
20260901210705 65 186 0.0 4.3 0.00 0.00 0.00 70 1017.7
20260901205705 65 186 0.9 3.5 0.00 0.00 0.00 70 1017.7
20260901205204 65 176 0.0 3.5 0.00 0.00 0.00 69 1017.7
20260901204704 65 176 0.9 3.5 0.00 0.00 0.00 69 1017.7
20260901204204 65 173 0.9 3.5 0.00 0.00 0.00 69 1017.8
20260901203704 65 172 0.0 4.3 0.00 0.00 0.00 69 1017.7
20260901203204 65 172 0.9 4.3 0.00 0.00 0.00 68 1017.6
20260901201704 66 207 0.9 3.5 0.00 0.00 0.00 67 1017.6
20260901201204 66 207 0.9 5.2 0.00 0.00 0.00 67 1017.5
20260901200704 66 213 0.9 5.2 0.00 0.00 0.00 67 1017.5
20260901200204 66 227 0.0 6.1 0.00 0.00 0.00 67 1017.6
20260901195704 66 172 0.9 6.1 0.00 0.00 0.00 67 1017.5
20260901195204 66 171 1.7 6.1 0.00 0.00 0.00 66 1017.6
20260901194705 67 196 0.9 5.2 0.00 0.00 0.00 66 1017.6
20260901194204 67 207 0.9 6.1 0.00 0.00 0.00 66 1017.5
20260901193704 67 185 1.7 6.1 0.00 0.00 0.00 66 1017.4
20260901193204 67 221 1.7 6.1 0.00 0.00 0.00 65 1017.4
20260901192704 67 182 1.7 6.1 0.00 0.00 0.00 65 1017.4
20260901191706 68 179 0.9 5.2 0.00 0.00 0.00 64 1017.3
20260901191204 68 185 0.0 5.2 0.00 0.00 0.00 64 1017.2
20260901190703 68 175 1.7 3.5 0.00 0.00 0.00 64 1017.2
20260901190204 68 231 0.9 5.2 0.00 0.00 0.00 63 1017.1
20260901185204 69 250 1.7 7.8 0.00 0.00 0.00 62 1017.0
20260901184204 69 200 0.9 6.1 0.00 0.00 0.00 60 1017.0
20260901183705 69 206 1.7 5.2 0.00 0.00 0.00 58 1017.1
20260901182704 70 200 0.9 8.7 0.00 0.00 0.00 55 1017.1
20260901182204 70 233 1.7 9.6 0.00 0.00 0.00 54 1017.0
20260901181704 70 183 1.7 9.6 0.00 0.00 0.00 52 1017.0
20260901181205 71 244 3.5 9.6 0.00 0.00 0.00 51 1016.9
20260901180704 71 247 1.7 4.3 0.00 0.00 0.00 49 1016.9
20260901175704 71 186 0.9 4.3 0.00 0.00 0.00 47 1016.8
20260901175205 72 161 1.7 5.2 0.00 0.00 0.00 46 1016.7
20260901174204 72 202 0.9 8.7 0.00 0.00 0.00 46 1016.9
20260901173739 73 254 2.6 8.7 0.00 0.00 0.00 45 1016.6
20260901173204 73 240 2.6 5.2 0.00 0.00 0.00 45 1016.6
20260901172705 73 202 1.7 6.1 0.00 0.00 0.00 45 1016.7
20260901172204 72 243 1.7 6.1 0.00 0.00 0.00 45 1016.7
20260901171705 72 231 3.5 6.1 0.00 0.00 0.00 45 1016.8
20260901171204 72 240 1.7 6.1 0.00 0.00 0.00 46 1016.8
20260901170704 72 202 0.9 4.3 0.00 0.00 0.00 46 1016.7
20260901170204 72 200 0.9 5.2 0.00 0.00 0.00 46 1016.6
20260901165714 72 193 1.7 5.2 0.00 0.00 0.00 46 1016.7
20260901165205 72 264 1.7 5.2 0.00 0.00 0.00 47 1016.8
20260901164704 72 234 0.9 5.2 0.00 0.00 0.00 48 1016.8
20260901164204 72 231 1.7 5.2 0.00 0.00 0.00 47 1016.7
20260901163706 72 243 1.7 6.1 0.00 0.00 0.00 48 1016.6
20260901163205 72 241 2.6 6.1 0.00 0.00 0.00 47 1016.6
20260901162704 72 269 2.6 8.7 0.00 0.00 0.00 47 1016.6
20260901162204 72 234 2.6 8.7 0.00 0.00 0.00 46 1016.5
20260901161704 72 237 3.5 7.8 0.00 0.00 0.00 46 1016.8
20260901160704 72 251 3.5 6.1 0.00 0.00 0.00 45 1016.9
20260901160207 72 241 2.6 6.1 0.00 0.00 0.00 46 1016.9
20260901155205 72 268 2.6 5.2 0.00 0.00 0.00 46 1016.9
20260901154204 73 221 1.7 7.8 0.00 0.00 0.00 45 1017.1
20260901153704 73 243 3.5 7.8 0.00 0.00 0.00 45 1017.2
20260901153204 73 168 1.7 7.8 0.00 0.00 0.00 46 1017.0
20260901152704 73 252 4.3 8.7 0.00 0.00 0.00 45 1017.1
20260901152205 73 207 1.7 8.7 0.00 0.00 0.00 44 1017.2
20260901151204 74 261 2.6 8.7 0.00 0.00 0.00 44 1017.2
20260901150704 73 234 3.5 8.7 0.00 0.00 0.00 44 1017.1
20260901145707 73 228 2.6 12.2 0.00 0.00 0.00 45 1017.1
20260901145204 73 240 3.5 12.2 0.00 0.00 0.00 45 1017.2
20260901143707 74 240 4.3 7.8 0.00 0.00 0.00 43 1017.3
20260901143204 74 230 2.6 8.7 0.00 0.00 0.00 44 1017.3
20260901142738 74 195 3.5 8.7 0.00 0.00 0.00 45 1017.1
20260901142204 74 241 4.3 8.7 0.00 0.00 0.00 46 1017.1
20260901141708 74 203 2.6 6.1 0.00 0.00 0.00 46 1017.2
20260901141208 73 178 1.7 7.8 0.00 0.00 0.00 48 1017.2
20260901140203 72 262 1.7 7.8 0.00 0.00 0.00 50 1017.3
20260901135705 71 173 2.6 8.7 0.00 0.00 0.00 51 1017.4
20260901135204 72 235 3.5 8.7 0.00 0.00 0.00 50 1017.4
20260901134704 72 221 1.7 7.8 0.00 0.00 0.00 50 1017.3
20260901134204 71 209 3.5 7.8 0.00 0.00 0.00 52 1017.4
20260901133705 71 178 2.6 7.8 0.00 0.00 0.00 52 1017.4
20260901133205 71 224 2.6 6.1 0.00 0.00 0.00 51 1017.5
20260901132705 72 173 1.7 6.1 0.00 0.00 0.00 51 1017.5
20260901132204 72 262 1.7 6.1 0.00 0.00 0.00 51 1017.6
20260901131704 73 219 1.7 6.1 0.00 0.00 0.00 50 1017.6
20260901131204 72 176 0.9 5.2 0.00 0.00 0.00 53 1017.4
20260901130704 72 220 0.9 9.6 0.00 0.00 0.00 52 1017.6
20260901130204 72 203 1.7 9.6 0.00 0.00 0.00 50 1017.6
20260901125704 72 155 1.7 9.6 0.00 0.00 0.00 50 1017.6
20260901124704 72 288 2.6 5.2 0.00 0.00 0.00 51 1017.7
20260901124205 71 252 2.6 5.2 0.00 0.00 0.00 51 1017.8
20260901123704 71 223 1.7 5.2 0.00 0.00 0.00 49 1017.7
20260901122705 72 231 1.7 6.1 0.00 0.00 0.00 47 1017.7
20260901122204 73 244 2.6 8.7 0.00 0.00 0.00 47 1017.8
20260901121736 72 134 1.7 8.7 0.00 0.00 0.00 47 1017.9
20260901121204 72 216 2.6 8.7 0.00 0.00 0.00 48 1017.9
20260901120704 72 223 0.9 6.1 0.00 0.00 0.00 46 1017.7
20260901120204 71 230 2.6 6.1 0.00 0.00 0.00 48 1017.9
20260901115705 71 255 1.7 8.7 0.00 0.00 0.00 50 1017.9
20260901115205 71 272 3.5 8.7 0.00 0.00 0.00 49 1017.9
20260901114707 70 237 2.6 8.7 0.00 0.00 0.00 49 1018.0
20260901114204 70 243 4.3 8.7 0.00 0.00 0.00 48 1018.0
20260901113204 71 195 2.6 5.2 0.00 0.00 0.00 48 1018.0
20260901112705 71 178 0.9 6.1 0.00 0.00 0.00 49 1018.0
20260901111704 71 196 1.7 6.1 0.00 0.00 0.00 49 1018.1
20260901111205 70 183 1.7 6.1 0.00 0.00 0.00 50 1018.0
20260901110704 70 219 1.7 6.1 0.00 0.00 0.00 50 1017.9
20260901110204 69 172 1.7 10.4 0.00 0.00 0.00 50 1018.1
20260901105704 69 248 1.7 10.4 0.00 0.00 0.00 50 1018.1
20260901105205 69 157 1.7 10.4 0.00 0.00 0.00 51 1018.0
20260901104704 69 206 4.3 6.1 0.00 0.00 0.00 50 1018.2
20260901104205 69 248 1.7 7.8 0.00 0.00 0.00 51 1018.1
20260901103705 69 183 1.7 7.8 0.00 0.00 0.00 51 1018.2
20260901103204 69 210 2.6 6.1 0.00 0.00 0.00 52 1018.3
20260901102705 69 197 1.7 5.2 0.00 0.00 0.00 53 1018.2
20260901101704 69 183 0.9 5.2 0.00 0.00 0.00 53 1018.4
20260901101204 69 206 1.7 5.2 0.00 0.00 0.00 54 1018.4
20260901100707 69 186 1.7 5.2 0.00 0.00 0.00 56 1018.5
20260901100203 68 124 1.7 5.2 0.00 0.00 0.00 57 1018.6
20260901095704 68 169 1.7 4.3 0.00 0.00 0.00 58 1018.5
20260901095204 67 207 0.9 6.1 0.00 0.00 0.00 59 1018.5
20260901094704 67 224 1.7 7.8 0.00 0.00 0.00 60 1018.7
20260901094205 66 227 3.5 7.8 0.00 0.00 0.00 60 1018.7
20260901093204 66 209 1.7 7.8 0.00 0.00 0.00 61 1018.6
20260901092704 65 183 0.9 7.8 0.00 0.00 0.00 63 1018.6
20260901092205 65 272 2.6 7.8 0.00 0.00 0.00 62 1018.6
20260901091705 65 252 2.6 7.8 0.00 0.00 0.00 64 1018.7
20260901091204 65 254 2.6 4.3 0.00 0.00 0.00 64 1018.6
20260901090207 64 193 0.9 3.5 0.00 0.00 0.00 69 1018.6
20260901085705 64 197 1.7 3.5 0.00 0.00 0.00 70 1018.6
20260901085204 63 237 2.6 2.6 0.00 0.00 0.00 70 1018.6
20260901084204 62 235 0.9 2.6 0.00 0.00 0.00 74 1018.6
20260901083704 62 237 0.9 3.5 0.00 0.00 0.00 74 1018.5
20260901083203 61 237 1.7 3.5 0.00 0.00 0.00 74 1018.5
20260901082730 61 237 0.0 3.5 0.00 0.00 0.00 75 1018.5
20260901082209 61 237 0.0 2.6 0.00 0.00 0.00 77 1018.5
20260901081205 60 237 0.9 3.5 0.00 0.00 0.00 77 1018.6
20260901080710 60 237 0.9 3.5 0.00 0.00 0.00 77 1018.5
20260901080205 59 237 0.9 2.6 0.00 0.00 0.00 78 1018.4
20260901075704 59 237 0.9 3.5 0.00 0.00 0.00 78 1018.4
20260901075205 59 237 0.9 3.5 0.00 0.00 0.00 78 1018.4
20260901074707 59 237 0.9 3.5 0.00 0.00 0.00 78 1018.3
20260901073705 58 237 0.9 2.6 0.00 0.00 0.00 78 1018.2
20260901072705 58 237 0.9 3.5 0.00 0.00 0.00 79 1018.3
20260901072205 58 237 0.9 3.5 0.00 0.00 0.00 78 1018.2
20260901071705 58 237 0.9 1.7 0.00 0.00 0.00 78 1018.2
20260901070705 57 238 0.0 1.7 0.00 0.00 0.00 77 1018.2
20260901070205 57 238 0.0 1.7 0.00 0.00 0.00 77 1018.2
20260901064704 56 238 0.0 0.9 0.00 0.00 0.00 77 1018.0
20260901064203 56 238 0.0 1.7 0.00 0.00 0.00 77 1018.0
20260901063705 56 238 0.0 1.7 0.00 0.00 0.00 77 1018.0
20260901063205 56 238 0.0 1.7 0.00 0.00 0.00 77 1017.9
20260901062705 56 238 0.0 0.9 0.00 0.00 0.00 76 1017.9
20260901062204 56 238 0.0 0.9 0.00 0.00 0.00 76 1017.9
20260901061704 56 238 0.0 0.9 0.00 0.00 0.00 76 1017.9
20260901060706 55 238 0.0 0.9 0.00 0.00 0.00 76 1017.9
20260901060205 55 238 0.0 0.9 0.00 0.00 0.00 76 1017.8
20260901055705 55 238 0.0 0.9 0.00 0.00 0.00 76 1017.7
20260901055204 55 238 0.0 0.9 0.00 0.00 0.00 76 1017.7
20260901054705 55 238 0.0 0.9 0.00 0.00 0.00 76 1017.7
20260901054204 55 238 0.0 0.9 0.00 0.00 0.00 76 1017.7
20260901053704 55 238 0.0 0.9 0.00 0.00 0.00 76 1017.6
20260901053225 55 238 0.0 0.9 0.00 0.00 0.00 76 1017.6
20260901051704 55 238 0.0 0.9 0.00 0.00 0.00 77 1017.6
20260901051204 55 238 0.0 0.9 0.00 0.00 0.00 77 1017.5
20260901050704 55 238 0.0 0.9 0.00 0.00 0.00 77 1017.4
20260901050204 55 238 0.0 0.9 0.00 0.00 0.00 77 1017.4
20260901044705 55 238 0.0 0.9 0.00 0.00 0.00 78 1017.3
20260901044205 55 238 0.0 0.9 0.00 0.00 0.00 78 1017.3
20260901043705 55 238 0.0 0.9 0.00 0.00 0.00 78 1017.4
20260901043204 55 238 0.0 0.9 0.00 0.00 0.00 78 1017.4
20260901042704 55 238 0.0 0.0 0.00 0.00 0.00 78 1017.4
20260901042204 55 238 0.0 0.0 0.00 0.00 0.00 78 1017.4
20260901041705 55 238 0.0 0.9 0.00 0.00 0.00 78 1017.2
20260901041205 55 238 0.0 0.9 0.00 0.00 0.00 78 1017.1
20260901040705 56 238 0.0 0.9 0.00 0.00 0.00 78 1017.1
20260901040203 56 238 0.0 0.9 0.00 0.00 0.00 78 1017.1
20260901035206 56 238 0.0 0.9 0.00 0.00 0.00 78 1017.1
20260901034705 56 238 0.0 0.9 0.00 0.00 0.00 79 1017.0
20260901033705 56 238 0.0 1.7 0.00 0.00 0.00 78 1017.1
20260901033204 56 238 0.0 1.7 0.00 0.00 0.00 78 1017.0
20260901032704 56 238 0.0 1.7 0.00 0.00 0.00 78 1017.0
20260901032203 56 238 0.0 0.9 0.00 0.00 0.00 78 1017.0
20260901031705 56 238 0.0 0.9 0.00 0.00 0.00 78 1017.0
20260901031204 57 238 0.0 0.9 0.00 0.00 0.00 78 1017.0
20260901030704 57 238 0.0 0.9 0.00 0.00 0.00 78 1017.0
20260901030204 57 238 0.0 0.9 0.00 0.00 0.00 78 1017.0
20260901025205 57 238 0.0 0.9 0.00 0.00 0.00 78 1017.0
20260901024705 57 238 0.0 0.0 0.00 0.00 0.00 78 1016.9
20260901024203 58 238 0.0 0.0 0.00 0.00 0.00 77 1017.0
20260901023705 58 238 0.0 0.9 0.00 0.00 0.00 77 1017.0
20260901023204 58 238 0.0 0.9 0.00 0.00 0.00 77 1016.9
20260901022708 58 238 0.0 0.9 0.00 0.00 0.00 77 1016.9
20260901022204 58 238 0.0 0.9 0.00 0.00 0.00 76 1016.9
20260901021704 58 238 0.0 0.9 0.00 0.00 0.00 76 1017.0
20260901021204 58 238 0.0 0.9 0.00 0.00 0.00 76 1017.0
20260901020704 59 238 0.0 0.9 0.00 0.00 0.00 76 1016.9
20260901015704 59 238 0.0 0.9 0.00 0.00 0.00 75 1016.9
20260901015204 59 238 0.0 0.9 0.00 0.00 0.00 75 1016.8
20260901014704 60 238 0.0 1.7 0.00 0.00 0.00 74 1016.9
20260901013706 60 238 0.0 3.5 0.00 0.00 0.00 74 1016.7
20260901013205 60 238 0.9 3.5 0.00 0.00 0.00 74 1016.8
20260901012704 60 238 0.9 3.5 0.00 0.00 0.00 74 1016.7
20260901011204 60 238 0.9 1.7 0.00 0.00 0.00 72 1016.8
20260901010704 61 238 0.0 4.3 0.00 0.00 0.00 72 1016.6
20260901010204 61 238 0.0 4.3 0.00 0.00 0.00 71 1016.6
20260901005704 61 238 0.9 4.3 0.00 0.00 0.00 71 1016.7
20260901005204 61 240 1.7 7.8 0.00 0.00 0.00 71 1016.6
20260901003704 62 241 1.7 7.8 0.00 0.00 0.00 70 1016.6